Regional Weather Roundup
Issued by NWS

Home | Current Version | Previous Version | Text Only | Print | Product List | Glossary On
Versions: 1 2 3 4 5 6 7 8 9 10 11 12 13 14 15 16 17 18 19 20 21 22 23 24 25 26 27 28 29 30 31 32 33 34 35 36 37 38 39 40 41 42 43 44 45 46 47 48 49 50
516
ASUS44 KJAN 262103
RWRMS

MISSISSIPPI HOURLY WEATHER ROUNDUP
NATIONAL WEATHER SERVICE JACKSON MS
400 PM CDT TUE AUG 26 2014

NOTE: "FAIR: INDICATES FEW OR NO CLOUDS BELOW 12,000 FEET WITH NO
SIGNIFICANT WEATHER AND/OR OBSTRUCTIONS TO VISIBILITY.

MSZ001>002-007>008-010>013-018>021-025>028-034>036-262200-
NORTHWEST MISSISSIPPI

CITY           SKY/WX    TMP DP  RH WIND       PRES   REMARKS
CLARKSDALE     FAIR      90  68  48 E5        30.04F HX  93
CLEVELAND      FAIR      91  65  43 NE6       30.02F HX  93
GREENWOOD      SUNNY     91  64  40 NE9       30.02F HX  92
GREENVILLE     SUNNY     91  65  41 NE6       30.01F HX  93
GRENADA        FAIR      90  59  35 E5        30.04F
OLIVE BRANCH   MOSUNNY   88  73  62 SE9       30.05F HX  96
OXFORD         FAIR      88  63  42 CALM      30.06F
TUNICA         CLEAR     90  68  48 NE6       30.04F HX  93
$$

MSZ003>006-009-014>017-022>024-029>033-037>039-262200-
NORTHEAST MISSISSIPPI

CITY           SKY/WX    TMP DP  RH WIND       PRES   REMARKS
BELMONT        MOCLDY    83  65  54 E5        30.07F
COLUMBUS AFB   SUNNY     91  61  37 VRB6      30.02F HX  90
CORINTH        FAIR      86  66  51 CALM      30.05F
GOLDN TRIANGLE MOSUNNY   91  59  33 NE12G21   30.03F HX  90
STARKVILLE     FAIR      90  57  33 NE7       30.02F
TUPELO         MOSUNNY   87  61  41 NE8       30.05F
$$

MSZ040-058-262200-
CENTRAL MISSISSIPPI

CITY           SKY/WX    TMP DP  RH WIND       PRES   REMARKS
JACKSON INTL   SUNNY     92  60  34 VRB5      30.01F HX  91
JACKSON HAWKNS SUNNY     89  62  40 E10       30.02F
MERIDIAN KEY   SUNNY     91  56  30 NE13      30.01F
MERIDIAN NAS   SUNNY     91  57  31 NE8G20    30.02F
RAYMOND        FAIR      90  84  84 E8        30.01F HX 115
VICKSBURG      SUNNY     92  61  35 NE10      30.00F HX  92
$$

MSZ059>079-262200-
SOUTH MISSISSIPPI

CITY           SKY/WX    TMP DP  RH WIND       PRES   REMARKS
BROOKHAVEN     FAIR      88  64  45 NE7       30.02F
COLUMBIA       FAIR      86  66  51 MISG      29.98F
HATTIESBURG    MOSUNNY   91  63  39 E9        29.99F HX  92
MCCOMB         MOSUNNY   88  62  41 E6        30.00F
NATCHEZ        MOSUNNY   88  68  51 NE8G16    30.00F HX  91
PINE BELT      MOSUNNY   90  61  37 NE9       30.02S
$$

MSZ080>082-262200-
COASTAL MISSISSIPPI

CITY           SKY/WX    TMP DP  RH WIND       PRES   REMARKS
BAY ST LOUIS   MOSUNNY  N/A N/A N/A SE6       29.96F
BILOXI         MOSUNNY   89  71  54 S10       29.97F HX  96
PASCAGOULA     MOSUNNY   91  67  44 SE7       29.96F HX  94
GULFPORT       MOSUNNY   87  72  60 SE10      29.96F HX  93
$$



USA.gov is the U.S. government's official web portal to all federal, state and local government web resources and services.